Location: Buckland
(65.9785°N, 161.1281°W)
Time: 11:52:15
(UTC+00:00)

Transit 4A - Visible Passes

Search period start: 03 October 2022 00:00
Search period end: 13 October 2022 00:00
Orbit: 869 x 974 km, 66.8° (Epoch: 03 October)

Date Brightness Start Highest point End Pass type
(mag) Time Alt. Az. Time Alt. Az. Time Alt. Az.
03 Oct 9.6 08:53:20 17° ENE 08:53:20 17° ENE 08:55:00 10° ENE visible
03 Oct 8.2 10:36:50 50° E 10:36:50 50° E 10:41:29 10° ENE visible
03 Oct 7.7 12:20:20 52° W 12:21:56 87° NNW 12:27:53 10° ENE visible
03 Oct 7.8 14:03:50 18° WNW 14:08:31 88° NNE 14:14:25 10° ESE visible
03 Oct 8.0 15:48:56 10° WNW 15:54:46 58° SW 16:00:29 10° SE visible
04 Oct 9.5 09:02:20 20° ENE 09:02:20 20° ENE 09:04:20 10° ENE visible
04 Oct 8.0 10:45:50 58° E 10:45:50 58° E 10:50:44 10° ENE visible
04 Oct 7.8 12:29:20 46° W 12:31:14 84° N 12:37:10 10° E visible
04 Oct 7.8 14:12:50 16° WNW 14:17:48 87° SSW 14:23:41 10° ESE visible
04 Oct 8.1 15:58:12 10° WNW 16:03:54 49° SW 16:09:30 10° SSE visible
05 Oct 9.3 09:11:21 22° ENE 09:11:21 22° ENE 09:13:38 10° ENE visible
05 Oct 7.9 10:54:52 66° E 10:54:52 66° E 10:59:59 10° ENE visible
05 Oct 7.8 12:38:22 42° W 12:40:33 82° N 12:46:28 10° E visible
05 Oct 7.7 14:21:52 14° WNW 14:27:03 81° SSW 14:32:55 10° ESE visible
05 Oct 8.3 16:07:29 10° WNW 16:13:00 41° SW 16:18:25 10° SSE visible
06 Oct 9.2 09:20:24 25° ENE 09:20:24 25° ENE 09:22:53 10° ENE visible
06 Oct 7.8 11:03:54 73° E 11:03:54 73° E 11:09:15 10° ENE visible
06 Oct 7.8 12:47:25 38° W 12:49:51 83° N 12:55:46 10° E visible
06 Oct 7.7 14:30:55 13° WNW 14:36:17 73° SSW 14:42:07 10° SE visible
06 Oct 8.5 16:16:46 10° WNW 16:22:03 34° SW 16:27:14 10° S visible
07 Oct 9.1 09:29:30 27° ENE 09:29:30 27° ENE 09:32:08 10° ENE visible
07 Oct 7.8 11:13:00 78° ENE 11:13:00 78° ENE 11:18:31 10° ENE visible
07 Oct 7.8 12:56:31 35° WNW 12:59:09 85° N 13:05:03 10° E visible
07 Oct 7.8 14:40:01 12° WNW 14:45:29 64° SW 14:51:15 10° SE visible
08 Oct 9.1 09:38:38 29° ENE 09:38:38 29° ENE 09:41:23 10° ENE visible
08 Oct 7.8 11:22:08 81° NE 11:22:08 81° NE 11:27:48 10° E visible
08 Oct 7.7 13:05:39 34° WNW 13:08:27 89° NNE 13:14:20 10° ESE visible
08 Oct 7.9 14:49:11 12° WNW 14:54:39 55° SW 15:00:19 10° SE visible
09 Oct 9.1 09:47:51 29° ENE 09:47:51 29° ENE 09:50:38 10° ENE visible
09 Oct 7.8 11:31:22 81° NNE 11:31:22 81° NNE 11:37:05 10° E visible
09 Oct 7.7 13:14:53 33° WNW 13:17:43 85° SSW 13:23:35 10° ESE visible
09 Oct 8.0 14:58:24 11° WNW 15:03:46 46° SW 15:09:18 10° SSE visible
10 Oct 9.1 09:57:10 29° ENE 09:57:10 29° ENE 09:59:54 10° ENE visible
10 Oct 7.8 11:40:42 80° NE 11:40:42 80° NE 11:46:23 10° E visible
10 Oct 7.6 13:24:14 34° WNW 13:26:58 78° SSW 13:32:49 10° ESE visible
10 Oct 8.2 15:07:46 12° WNW 15:12:51 39° SW 15:18:11 10° SSE visible
11 Oct 9.2 10:06:40 27° ENE 10:06:40 27° ENE 10:09:09 10° ENE visible
11 Oct 7.8 11:50:13 77° ENE 11:50:13 77° ENE 11:55:41 10° E visible
11 Oct 7.7 13:33:45 36° WNW 13:36:11 70° SSW 13:41:59 10° SE visible
11 Oct 8.5 15:17:18 13° WNW 15:21:53 32° SW 15:26:57 10° S visible
12 Oct10.408:32:49ENE08:32:49ENE08:18:15SWvisible
12 Oct 9.4 10:16:23 23° ENE 10:16:23 23° ENE 10:18:25 10° ENE visible
12 Oct 7.9 11:59:57 66° E 11:59:57 66° E 12:04:58 10° ESE visible
12 Oct 7.7 13:43:31 42° W 13:45:22 61° SW 13:51:06 10° SE visible
12 Oct 8.7 15:27:06 14° WNW 15:30:51 26° WSW 15:35:35 10° S visible
